Погода в Вильнюсе

Погода в Вильнюсе : погода сейчас, прогноз погоды и архив. Всё, что Вы хотите узнать о погоде в Вильнюсе!

Поиск расширенной информации на нашем сайте:

Другие новости

Новости СМИ2

Главная страница сайта

Новости сайта

03.07.2017

Напоминаем, что на нашем специализированном сайте Метеоцентр.Азия вы можете получить высокодетализированные автоматические прогнозы погоды по пунктам России, СНГ и мира в авиационном формате (включающие направление и скорость ветра, видимость, явления погоды, количество и форму облачности, нижнюю и верхнюю границу облачности).


Погода в Вильнюсе - сегодня

Время (UTC), дата Ветер
(°,м/с) 
Видим.   Явления Облачность Т
(°С)
Тd
(°С)
f(%) Тe
(°С)
Pmin
(гПа)
dP
(гПа)
Po
(мм)
O2
(г/м3)
Тmin Tmax R s Состояние
почвы
21 20.09.18 150 (ЮВ) 2-2{03}  20000 м    ясно 
+16.9 +12.6 76 +23  1017.7  -0.1  749  282           
00 21.09.18 140 (ЮВ) 3-3{03}  20000 м    ясно 
+15.3 +12 81 +20  1017.6  -0.2  749  284           
03 21.09.18 140 (ЮВ) 2-3{03}  20000 м    ясно 
+14.3 +11.9 85 +19  1017.6  -0.1  749  285           
06 21.09.18 150 (ЮВ) 2-4{04}  17000 м    5/5 2000 м 
[Cu hum]
+16.2 +13.5 84 +23  1017.5  0.1  749  282  +14.2        сухая 
09 21.09.18 190 (Ю) 4-6{06}  20000 м    ясно 
+24.7 +13.6 50 +31  1016.5  -0.5  749  274           
12 21.09.18 180 (Ю) 5-9{10}  19000 м    ясно 
+27 +12 39 +31  1014.8  -1.6  748  272           
15 21.09.18 170 (Ю) 5-9{10}  20000 м    1/0 верхняя 
[Ci fib]
+25.1 +10.6 40 +27  1012.3  -2.5  746  273           
18 21.09.18 150 (ЮВ) 4-5{10}  20000 м    ясно 
+20 +10.6 55 +22  1011  -1.6  745  278    +27.4       
21 21.09.18 160 (Ю) 4-7{07}  20000 м    ясно 
+18.1 +12 68 +22  1009  -2.1  743  278           
00 22.09.18 170 (Ю) 5-9{09}  20000 м    3/3 2000 м 
[Sc]
+17.7 +11.4 67 +21  1007.1  -1.9  742  278           
03 22.09.18 200 (Ю) 4-7{09}  20000 м    6/6 2000 м 
[Sc]
+17.6 +11.3 67 +21  1006.4  -0.7  741  278           
06 22.09.18 280 (З) 4-8{12}  18000 м  слаб. дождь  10/10 1440 м 
[Frnb|Ns]
+12.9 +11 88 +15  1010  3.3  744  284  +12.8      влажная 
09 22.09.18 250 (З) 4-8{10}  20000 м  {дождь}  10/10 500 м 
[St]
+12.3 +9.9 85 +13  1012.3  2.2  745  286           
12 22.09.18 240 (ЮЗ) 3-6{08}  20000 м  {дождь}  9/8 1000 м средняя 
[Cu Sc|As trans]
+12.7 +8.1 74 +13  1012.7  0.6  746  286      0.8     
15 22.09.18 210 (ЮЗ) 4-6{09}  20000 м    8/6 2000 м средняя, верхняя 
[Sc diur, vesp|Ac As|Ci]
+13.3 +7.1 66 +13  1012.6  -0.2  746  285           
18 22.09.18 220 (ЮЗ) 4-7{08}  16000 м  слаб. дождь  10/10 1300 м 
[Ns]
+10.9 +8 82 +10  1013.4  0.5  746  288    +13.8     
21 22.09.18 220 (ЮЗ) 2-3{07}  20000 м  {дождь}  ясно 
+8.1 +6.5 90 +8  1013.2  -0.3  746  291           
00 23.09.18 210 (ЮЗ) 3-4{04}  20000 м  {дождь}  ясно 
+6.6 +5.2 91 +6  1012.8  -0.5  745  292      0.0     
03 23.09.18 200 (Ю) 3-6{06}  20000 м    9/9 2000 м 
[Sc]
+6.7 +5.3 91 +6  1011.8  -1  745  292           
06 23.09.18 210 (ЮЗ) 4-7{07}  20000 м    3/3 2000 м 
[Sc diur, vesp]
+7.6 +6.1 90 +6  1011.1  -0.6  744  291  +6.2    0.0    влажная 
09 23.09.18 230 (ЮЗ) 5-9{11}  20000 м    4/4 1080 м 
[Cu med, cong]
+12.5 +5.1 61 +12  1010.8  744  286           
12 23.09.18 230 (ЮЗ) 4-7{11}  20000 м    8/6 1500 м кучево-дожд., средняя, верхняя 
[Cb calv|Ac trans|Ci sp]
+13 +5.8 62 +13  1010.4  -0.3  744  285           
15 23.09.18 210 (ЮЗ) 3-5{10}  20000 м  {дождь}  6/5 2000 м кучево-дожд., средняя, верхняя 
[Cb calv|Ac trans|Ci fib]
+12.1 +6.8 70 +12  1009.8  -0.7  743  286           
18 23.09.18 тихо () -2{06}  18000 м  слаб. дождь  10/10 1000 м 
[Ns]
+9.2 +6.2 81 +9  1009.1  -0.9  743  288    +15.5  0.0     
21 23.09.18 160 (Ю) 1-3{04}  20000 м  {дождь}  9/0 средняя 
[Ac As]
+8.2 +7 92 +9  1007.2  -1.9  741  289           
Время (UTC), дата Ветер
(°,м/с) 
Видим.   Явления Облачность Т
(°С)
Тd
(°С)
f(%) Тe
(°С)
Pmin
(гПа)
dP
(гПа)
Po
(мм)
O2
(г/м3)
Тmin Tmax R s Состояние
почвы

Для получения пояснительной информации подведите курсор к названию столбца.

ПОГОДА в Вильнюсе - архив

Всё, что Вы хотите узнать о погоде в Вильнюсе - удобно и подробно!

Выберите нужную дату (начиная с 1 января 2015* года) и нажмите кнопку "Найти".
Будут отображены архивные сводки погоды по пункту Вильнюс, начиная с указанной даты.


Отображать данные в формате CSV (для использования в таблицах Excel)


Внимание! Наш архив погоды предназначен исключительно для личного некоммерческого использования в познавательных целях. Если Вам необходимы официальные справки о состоянии погоды (для производственных, юридических, коммерческих и т.п. целей), обращайтесь в органы Росгидромета.

*Примечание: данная дата относится к архиву по метеостанциям СССР (Россия, СНГ, Балтия).
Архив по метеостанциям Зарубежной Европы и Азии (кроме Китая) хранится 10 дней, по другим регионам земного шара (Китай, Африка, Америка, Австралия, Океания) - 1 день.

Вильнюс - район местоположения метеостанции


Название, широта, долгота, высота метеостанции:
Вильнюс 54.6°ш. 25.1°д. 156 м над ур. моря [Литва]

Дополнительная информация

В oтличие oт бoльшинства пoгoдных сайтoв мы публикуем пoдрoбную метеoинфoрмацию в детальнoм прoфессиoнальнoм фoрмате.

Характеристики температуры и влажнoсти вoздуха измеряются на высoте 2 м в тени вдали oт зданий и деревьев.
Скoрoсть ветра измеряется на высoте 10 м (на урoвне рoста челoвека скoрoсть ветра ниже в 1.5-2 раза). Если метеoстанция нахoдится в гoрoде или в лесу, тo скoрoсть ветра занижена на 2-4 м/с пo сравнению с oткрытым местoм. Скoрoсть ветра над акватoриями крупных рек и oзёр, а также на вершинах хoлмoв на 2-5 м/с выше, чем в oбычных услoвиях.
Атмoсфернoе давление в разных тoчках местнoсти мoжет значительнo oтличаться oт давления на метеoстанции, в зависимoсти oт услoвий рельефа (при пoдъёме на 10 м давление пoнижается примернo на 1 мм рт.ст.).